Tracking 17782 objects as of 26-July-2016
HD Live streaming from Space Station
objects crossing your sky now

NAVSTAR 30 (USA 88)

Track NAVSTAR 30 (USA 88) now!
NAVSTAR 30 (USA 88) is classified as:


NORAD ID: 22446
Int'l Code: 1993-007A
Perigee: 21,290.1 km
Apogee: 21,411.6 km
Inclination: 55.5 °
Period: 765.6 minutes
Semi major axis: 27721 km
RCS: 2.5118 m2 (large)
Launch date: February 3, 1993
Source: United States (US)
Launch site: AIR FORCE EASTERN TEST RANGE (AFETR)
PRN:
Your satellite tracking list
Your tracking list is empty





NASA's NSSDC Master Catalog

Two Line Element Set (TLE):
1 22446U 93007A   16207.26967397 -.00000057  00000-0  00000+0 0  9994
2 22446  55.4687  11.2366 0021927 329.6961 224.4825  1.88091739166074
Source of the keplerian elements: AFSPC

N2YO: 728